(294629) = 2005 JF160 = 2008 AG43

Discovered at Catalina on 2008-01-10 by CSS.

Orbit

Orbit type: Main Belt

Note: WebGL enabled browser required.

epoch2023-02-25.0
epoch JD2460000.5
perihelion date2022-06-21.89277
perihelion JD2459752.39277
argument of perihelion (°)176.00803
ascending node (°)345.82072
inclination (°)0.80021
eccentricity0.1366897
perihelion distance (AU)1.9979060
Tisserand w.r.t. Jupiter3.6
ΔV w.r.t. Earth (km/sec)8.8
semimajor axis (AU)2.3142387
mean anomaly (°)69.45940
mean daily motion (°/day)0.27995720
aphelion distance (AU)2.631
period (years)3.52
P-vector [x]-0.95013034
P-vector [y]0.28573147
P-vector [z]0.12493946
Q-vector [x]-0.31183431
Q-vector [y]-0.86609764
Q-vector [z]-0.39068433
absolute magnitude17.92
phase slope0.15
uncertainty0
referenceMPO 745323
observations used231
oppositions14
arc length (days)8127
first opposition used2001
last opposition used2023
residual rms (arc-secs)0.81
perturbers coarse indicatorM-v
perturbers precise indicator003Ek
first observation date used2001-03-25.0
last observation date used2023-06-25.0
computer nameMPCLINUX
JD of orbit computation2456552.173859
perihelion JD uncertainty (days)9.8382E-05
argument of perihelion uncertainty (°)3.8922E-04
ascending node uncertainty (°)3.8850E-04
inclination uncertainty (°)5.4262E-06
eccentricity uncertainty 5.6310E-08
perihelion distance uncertainty (AU)1.2036E-07
Minimum Orbit Intersection Distances (in AU)
for orbit epoch: 2460000.5, reference: E2023-MF0
Mercury1.61688
Venus1.28068
Earth1.00634
Mars0.33657
Jupiter2.34443
Saturn6.76075
Uranus16.4428
Neptune27.2779

Observations

230 total observations over interval: 2001 03 25.13683 – 2023 06 25.17101
These data are available for download (format description).

Date (UT) J2000 RA J2000 Dec Magn Location Ref
2001 03 25.13683 08 13 44.28 +20 16 49.5 22.0 R 695 – Kitt Peak MPS 239589
2001 03 25.22080 08 13 47.08 +20 16 36.8   695 – Kitt Peak MPS 239589
2003 11 21.23369 02 30 35.46 +16 04 32.0 22.0 V 691 – Steward Observatory, Kitt Peak-Spacewatch MPS 239589
2003 11 21.26591 02 30 33.59 +16 04 24.1 22.0 V 691 – Steward Observatory, Kitt Peak-Spacewatch MPS 239589
2003 11 21.29260 02 30 32.02 +16 04 16.3 22.3 V 691 – Steward Observatory, Kitt Peak-Spacewatch MPS 239589
2005 05 07.27895 14 41 44.41 -17 04 19.3 19.4 R G96 – Mt. Lemmon Survey MPS 135421
2005 05 07.28557 14 41 43.97 -17 04 17.7 18.5 R G96 – Mt. Lemmon Survey MPS 135421
2005 05 07.29237 14 41 43.64 -17 04 16.2 17.7 R G96 – Mt. Lemmon Survey MPS 135421
2005 05 07.29900 14 41 43.19 -17 04 15.1 18.4 R G96 – Mt. Lemmon Survey MPS 135421
2005 05 16.29257 14 33 17.41 -16 26 03.8 19.7 R G96 – Mt. Lemmon Survey MPS 135421
2005 05 16.30047 14 33 16.98 -16 26 02.0 19.9 R G96 – Mt. Lemmon Survey MPS 135421
2005 05 16.30839 14 33 16.56 -16 26 00.4 19.7 R G96 – Mt. Lemmon Survey MPS 135421
2005 05 16.31630 14 33 16.11 -16 25 58.2 20.2 R G96 – Mt. Lemmon Survey MPS 135421
2006 09 25.26853 22 59 09.81 -06 22 54.8 22.4 V G96 – Mt. Lemmon Survey MPS 239589
2006 09 25.27517 22 59 09.56 -06 22 56.7 21.2 V G96 – Mt. Lemmon Survey MPS 239589
2006 09 25.28189 22 59 09.13 -06 22 58.5 21.4 V G96 – Mt. Lemmon Survey MPS 239589
2006 09 25.28852 22 59 08.77 -06 23 01.6 21.8 V G96 – Mt. Lemmon Survey MPS 239589
2007 11 04.44050 08 07 16.57 +21 12 35.7 22.0 V G96 – Mt. Lemmon Survey MPS 239589
2007 11 04.44926 08 07 17.11 +21 12 34.2 22.0 V G96 – Mt. Lemmon Survey MPS 239589
2007 11 04.45803 08 07 17.65 +21 12 32.2 20.6 V G96 – Mt. Lemmon Survey MPS 239589
2007 11 04.46686 08 07 18.22 +21 12 32.0 21.3 V G96 – Mt. Lemmon Survey MPS 239589
2007 11 11.40661 08 13 59.52 +20 54 03.3 22.0 V G96 – Mt. Lemmon Survey MPS 239589
2007 11 11.41390 08 13 59.91 +20 54 02.9 21.9 V G96 – Mt. Lemmon Survey MPS 239589
2007 11 11.42098 08 14 00.24 +20 54 01.9 21.5 V G96 – Mt. Lemmon Survey MPS 239589
2007 11 11.42819 08 14 00.60 +20 54 00.7 22.4 V G96 – Mt. Lemmon Survey MPS 239589
2007 11 21.34940 08 21 25.41 +20 33 06.4 22.1 V G96 – Mt. Lemmon Survey MPS 239589
2007 11 21.35427 08 21 25.56 +20 33 05.7 21.2 V G96 – Mt. Lemmon Survey MPS 239589
2007 11 21.35922 08 21 25.74 +20 33 05.5 21.1 V G96 – Mt. Lemmon Survey MPS 239589
2007 11 21.36410 08 21 25.88 +20 33 05.6 21.7 V G96 – Mt. Lemmon Survey MPS 239589
2007 12 31.29968 08 18 41.84 +20 50 45.6 20.2 V 691 – Steward Observatory, Kitt Peak-Spacewatch MPS 239589
2007 12 31.31734 08 18 41.00 +20 50 48.2 20.2 V 691 – Steward Observatory, Kitt Peak-Spacewatch MPS 239589
2007 12 31.33499 08 18 40.18 +20 50 50.8 19.9 V 691 – Steward Observatory, Kitt Peak-Spacewatch MPS 239589
2007 12 31.43936 08 18 35.02 +20 51 06.0 20.5 V G96 – Mt. Lemmon Survey MPS 239589
2007 12 31.44660 08 18 34.66 +20 51 07.3 20.5 V G96 – Mt. Lemmon Survey MPS 239589
2007 12 31.45140 08 18 34.41 +20 51 08.3 20.2 V G96 – Mt. Lemmon Survey MPS 239589
2007 12 31.45620 08 18 34.20 +20 51 08.5 20.2 V G96 – Mt. Lemmon Survey MPS 239589
2008 01 10.43515 08 09 31.21 +21 18 51.2 20.2 V 703 – Catalina Sky Survey MPS 234416
2008 01 10.44225 08 09 30.88 +21 18 51.5 21.3 V 703 – Catalina Sky Survey MPS 234416
2008 01 10.44931 08 09 30.34 +21 18 53.5 20.1 V 703 – Catalina Sky Survey MPS 234416
2008 01 10.45634 08 09 29.84 +21 18 52.8 20.8 V 703 – Catalina Sky Survey MPS 234416
2008 01 13.24923 08 06 35.71 +21 27 07.1   691 – Steward Observatory, Kitt Peak-Spacewatch MPS 234416
2008 01 13.26439 08 06 34.71 +21 27 09.8   691 – Steward Observatory, Kitt Peak-Spacewatch MPS 234416
2008 01 13.28302 08 06 33.48 +21 27 12.3   691 – Steward Observatory, Kitt Peak-Spacewatch MPS 234416
2008 03 09.17086 07 32 40.48 +22 21 52.3 21.0 V G96 – Mt. Lemmon Survey MPS 242240
2008 03 09.17752 07 32 40.63 +22 21 51.6 20.9 V G96 – Mt. Lemmon Survey MPS 242240
2008 03 09.18418 07 32 40.70 +22 21 51.2 21.1 V G96 – Mt. Lemmon Survey MPS 242240
2008 03 09.19098 07 32 40.84 +22 21 50.6 21.1 V G96 – Mt. Lemmon Survey MPS 242240
2010 10 08.403120 02 45 26.052 +16 57 26.41 21.86 w F51 – Pan-STARRS 1, Haleakala MPS 365706
2010 10 08.421309 02 45 25.245 +16 57 23.62 21.78 w F51 – Pan-STARRS 1, Haleakala MPS 365706
2010 10 08.439539 02 45 24.450 +16 57 20.84 21.74 w F51 – Pan-STARRS 1, Haleakala MPS 365706
2010 10 08.458645 02 45 23.608 +16 57 17.88 21.94 w F51 – Pan-STARRS 1, Haleakala MPS 365706
2010 10 14.507728 02 40 43.575 +16 38 53.86 21.11 i F51 – Pan-STARRS 1, Haleakala MPS 365706
2010 10 14.519491 02 40 42.949 +16 38 51.42 21.10 i F51 – Pan-STARRS 1, Haleakala MPS 365706
2010 10 17.32652 02 38 16.76 +16 28 47.2 21.4 V G96 – Mt. Lemmon Survey MPS 351359
2010 10 17.33343 02 38 16.36 +16 28 45.7 21.3 V G96 – Mt. Lemmon Survey MPS 351359
2010 10 17.34032 02 38 16.00 +16 28 44.0 21.5 V G96 – Mt. Lemmon Survey MPS 351359
2010 10 17.34719 02 38 15.61 +16 28 42.8 21.2 V G96 – Mt. Lemmon Survey MPS 351359
2010 11 01.13803 02 23 34.71 +15 23 23.8   691 – Steward Observatory, Kitt Peak-Spacewatch MPS 353863
2010 11 01.15573 02 23 33.64 +15 23 18.3   691 – Steward Observatory, Kitt Peak-Spacewatch MPS 353863
2010 11 01.17343 02 23 32.46 +15 23 12.9   691 – Steward Observatory, Kitt Peak-Spacewatch MPS 353863
2010 11 09.25435 02 15 10.94 +14 42 51.5 20.8 V G96 – Mt. Lemmon Survey MPS 355478
2010 11 09.26578 02 15 10.22 +14 42 48.9 20.8 V G96 – Mt. Lemmon Survey MPS 355478
2010 11 09.27156 02 15 09.90 +14 42 46.3 20.9 V G96 – Mt. Lemmon Survey MPS 355478
2012 03 24.36402 14 35 16.43 -16 07 09.7 21.0 V 691 – Steward Observatory, Kitt Peak-Spacewatch MPS 420182
2012 03 24.38179 14 35 16.02 -16 07 08.9 20.8 V 691 – Steward Observatory, Kitt Peak-Spacewatch MPS 420182
2012 03 24.39956 14 35 15.57 -16 07 07.7 20.9 V 691 – Steward Observatory, Kitt Peak-Spacewatch MPS 420182
2012 03 28.37941 14 33 32.77 -16 01 55.9 20.6 V 691 – Steward Observatory, Kitt Peak-Spacewatch MPS 420182
2012 03 28.39718 14 33 32.19 -16 01 54.0 20.6 V 691 – Steward Observatory, Kitt Peak-Spacewatch MPS 420182
2012 03 28.41496 14 33 31.61 -16 01 52.2 20.3 V 691 – Steward Observatory, Kitt Peak-Spacewatch MPS 420182
2012 04 01.33454 14 31 20.41 -15 54 14.0 20.3 V 691 – Steward Observatory, Kitt Peak-Spacewatch MPS 420182
2012 04 01.35230 14 31 19.74 -15 54 11.1 20.4 V 691 – Steward Observatory, Kitt Peak-Spacewatch MPS 420182
2012 04 01.37006 14 31 18.99 -15 54 09.6 20.6 V 691 – Steward Observatory, Kitt Peak-Spacewatch MPS 420182
2012 04 28.29078 14 07 45.62 -14 10 30.0 19.5 V G96 – Mt. Lemmon Survey MPS 423648
2012 04 28.29767 14 07 45.22 -14 10 28.1 19.5 V G96 – Mt. Lemmon Survey MPS 423648
2012 04 28.31149 14 07 44.40 -14 10 24.4 19.6 V G96 – Mt. Lemmon Survey MPS 423648
2012 05 01.18933 14 05 01.03 -13 56 52.4 19.6 V G96 – Mt. Lemmon Survey MPS 423648
2012 05 01.19453 14 05 00.74 -13 56 51.1 20.1 V G96 – Mt. Lemmon Survey MPS 423648
2012 05 01.19979 14 05 00.38 -13 56 49.0 19.9 V G96 – Mt. Lemmon Survey MPS 423648
2012 05 01.20506 14 05 00.13 -13 56 48.3 20.1 V G96 – Mt. Lemmon Survey MPS 423648
2012 05 14.26317 13 54 16.48 -13 00 44.2 20.2 V G96 – Mt. Lemmon Survey MPS 424867
2012 05 14.26839 13 54 16.23 -13 00 43.0 20.1 V G96 – Mt. Lemmon Survey MPS 424867
2012 05 14.27363 13 54 15.98 -13 00 42.4 20.4 V G96 – Mt. Lemmon Survey MPS 424867
2012 05 14.27891 13 54 15.80 -13 00 40.7 20.0 V G96 – Mt. Lemmon Survey MPS 424867
2012 06 18.15486 13 48 43.20 -12 22 57.4 21.2 V G96 – Mt. Lemmon Survey MPS 427779
2012 06 18.16141 13 48 43.27 -12 22 58.4 21.8 V G96 – Mt. Lemmon Survey MPS 427779
2012 06 18.16781 13 48 43.45 -12 22 59.3 21.6 V G96 – Mt. Lemmon Survey MPS 427779
2012 06 18.17388 13 48 43.56 -12 22 59.5 22.2 V G96 – Mt. Lemmon Survey MPS 427779
2013 08 15.49937 23 14 59.828 -05 01 02.91 21.7 w F51 – Pan-STARRS 1, Haleakala MPS 474301
2013 08 15.51492 23 14 59.118 -05 01 06.95 21.7 w F51 – Pan-STARRS 1, Haleakala MPS 474301
2013 08 15.53050 23 14 58.390 -05 01 10.83 21.6 w F51 – Pan-STARRS 1, Haleakala MPS 474301
2013 08 15.54605 23 14 57.680 -05 01 15.18 21.6 w F51 – Pan-STARRS 1, Haleakala MPS 474301
2013 09 03.44848 22 58 30.936 -06 38 38.69 21.1 w F51 – Pan-STARRS 1, Haleakala MPS 476051
